This demonstration page uses our WeatherBlox Daily Observations layout. Learn more.

Left ArrowRight Arrow

47.50024, -111.30081

Hourly Observations for June 19, 2020

Temp ( °F °C ) Dew Point ( °F °C ) Humidity (%) Winds ( mph kmh ) Pressure ( in mb ) Visibility ( mi km ) Precip ( " mm )
12:53 am 00:53 Mostly Clear 50 10 43 6.1 77 77 SSW 9 15 30.09 1019 10 16 0.00 0.00
1:53 am 01:53 Partly Cloudy 49 9.4 43 6.1 80 80 SSW 8 13 30.06 1018 10 16 0.00 0.00
2:53 am 02:53 Mostly Cloudy 51 10.6 43 6.1 74 74 SSW 9 15 30.05 1018 10 16 0.00 0.00
3:53 am 03:53 Cloudy with Light Rain 51 10.6 44 6.7 77 77 N 14 22 30.08 1019 10 16 0.00 0.00
4:53 am 04:53 Cloudy 50 10 45 7.2 83 83 E 7 11 30.07 1018 10 16 0.00 0.00
5:53 am 05:53 Cloudy 50 10 46 7.8 86 86 S 9 15 30.06 1018 10 16 0.00 0.00
6:53 am 06:53 Cloudy with Light Rain 50 10 47 8.3 89 89 WSW 5 7 30.07 1018 10 16 0.01 0.25
7:53 am 07:53 Cloudy 50 10 47 8.3 89 89 SSW 13 20 30.04 1017 10 16 0.02 0.51
8:53 am 08:53 Mostly Cloudy 52 11.1 48 8.9 86 86 SW 13 20 30.04 1017 10 16 0.00 0.00
9:53 am 09:53 Mostly Sunny 57 13.9 50 10 78 78 SW 10 17 30.02 1017 10 16 0.00 0.00
10:53 am 10:53 Mostly Sunny 62 16.7 49 9.4 62 62 SW 15 24 30.00 1016 10 16 0.00 0.00
11:53 am 11:53 Sunny 66 18.9 48 8.9 52 52 W 8 13 29.98 1015 10 16 0.00 0.00
12:53 pm 12:53 Mostly Sunny 68 20 47 8.3 47 47 W 7 11 29.96 1014 10 16 0.00 0.00
1:53 pm 13:53 Cloudy 69 20.6 47 8.3 45 45 W 12 19 29.93 1014 10 16 0.00 0.00
2:17 pm 14:17 Mostly Cloudy 67 19.4 47 8.3 49 49 S 15 24 29.81 1009 10 16 0.00 0.00
2:46 pm 14:46 Mostly Cloudy with Nearby Thunderstorms 69 20.6 49 9.4 49 49 S 10 17 29.78 1009 10 16 0.00 0.00
2:53 pm 14:53 Mostly Cloudy with Nearby Thunderstorms 71 21.7 48 8.9 44 44 W 16 26 29.91 1013 10 16 0.00 0.00
3:01 pm 15:01 Mostly Cloudy 69 20.6 44 6.7 41 41 WSW 13 20 29.78 1009 10 16 0.00 0.00
3:09 pm 15:09 Mostly Cloudy 64 17.8 46 7.8 52 52 N 23 37 29.83 1010 10 16 0.00 0.00
3:20 pm 15:20 Mostly Cloudy 62 16.7 46 7.8 56 56 N 22 35 29.85 1011 10 16 0.00 0.00
3:53 pm 15:53 Mostly Sunny 67 19.4 46 7.8 47 47 NE 16 26 29.94 1014 10 16 0.00 0.00
4:53 pm 16:53 Partly Cloudy 67 19.4 46 7.8 47 47 ESE 13 20 29.94 1014 10 16 0.00 0.00
5:53 pm 17:53 Sunny 66 18.9 45 7.2 47 47 ESE 9 15 29.94 1014 10 16 0.00 0.00
6:53 pm 18:53 Sunny 66 18.9 46 7.8 49 49 SSE 9 15 29.94 1014 10 16 0.00 0.00
7:53 pm 19:53 Sunny 64 17.8 48 8.9 56 56 SE 6 9 29.94 1014 10 16 0.00 0.00
8:53 pm 20:53 Mostly Cloudy 63 17.2 50 10 63 63 SE 3 6 29.93 1014 10 16 0.00 0.00
9:53 pm 21:53 Cloudy with Light Rain 55 12.8 50 10 83 83 N 14 22 29.98 1015 10 16 0.00 0.00
10:53 pm 22:53 Cloudy 54 12.2 51 10.6 90 90 N 3 6 29.96 1014 10 16 0.05 1.27
11:53 pm 23:53 Partly Cloudy 52 11.1 49 9.4 89 89 SW 6 9 29.96 1015 10 16 0.00 0.00

Powered by AerisWeather